Flag for Russia Weather past 2 weeks in Murmansk, Russia

Now
37 °F

Sprinkles. Partly sunny.


Feels Like: 30 °F
Forecast: 42 / 48 °F
Wind: 10 mph from Southwest

Location: Murmansk Airport

Current Time: May 24, 2015 at 9:23:17 PM

Latest Report: May 24, 2015 at 8:30 PM


Visibility: 5 mi

Pressure: 29.30 "Hg

Humidity: 87%

Dew point: 34 °F

Location of MurmanskLocation

Historic Weather in Murmansk — Graph

°F

Murmansk temperature yesterday

Maximum temperature yesterday: 57 °F (at 12:30 PM)
Minimum temperature yesterday: 45 °F (at 11:00 PM)
Average temperature yesterday: 51 °F

Past Weeks' High & Low Weather Summary

 TemperatureHumidityPressure
High68 °F (May 20, 5:00 PM)93% (May 12, 10:30 PM)30.01 "Hg (May 12, 10:30 PM)
Low30 °F (May 11, 12:30 AM)21% (May 22, 8:00 PM)29.18 "Hg (May 24, 2:30 AM)
Average43 °F70%29.69 "Hg
* Reported May 9 8:00 PM — May 24 8:00 PM, Murmansk, Weather by CustomWeather, © 2015

Note: Actual official high and low records may vary slightly from our data, if they occured in-between our weather recording intervals... More about our weather records

Advertising

Murmansk weather history for previous 24 hours

 ConditionsComfort  
Time TempWeatherWind HumidityBarometerVisibility
8:00 PM
Sun, May 24
37 °FSprinkles. Partly sunny.10 mph87%29.30 "Hg6 mi
7:30 PM37 °FSprinkles. Partly sunny.10 mph87%29.30 "Hg4 mi
7:00 PM37 °FSprinkles. Partly sunny.10 mph87%29.30 "Hg5 mi
6:30 PM39 °FSprinkles. Partly sunny.8 mph87%29.30 "HgN/A
6:00 PM39 °FSprinkles. Partly sunny.10 mph81%29.27 "Hg5 mi
5:30 PM41 °FSprinkles. Partly sunny.8 mph87%29.27 "HgN/A
5:00 PM41 °FSprinkles. Partly sunny.6 mph87%29.24 "HgN/A
4:30 PM41 °FPartly sunny.8 mph81%29.27 "HgN/A
4:00 PM41 °FPartly sunny.13 mph76%29.27 "HgN/A
3:30 PM41 °FSprinkles. Partly sunny.8 mph76%29.27 "HgN/A
3:00 PM41 °FSprinkles. Partly sunny.10 mph76%29.27 "Hg6 mi
2:30 PM41 °FSprinkles. Partly sunny.10 mph76%29.27 "HgN/A
2:00 PM41 °FSprinkles. Partly sunny.10 mph76%29.27 "HgN/A
1:30 PM41 °FSprinkles. Partly sunny.8 mph76%29.24 "HgN/A
1:00 PM41 °FSprinkles. Partly sunny.10 mph81%29.24 "HgN/A
12:30 PM41 °FSprinkles. Partly sunny.8 mph76%29.24 "HgN/A
12:00 PM41 °FSprinkles. Partly sunny.10 mph76%29.24 "HgN/A
11:30 AM41 °FSprinkles. Partly sunny.13 mph76%29.24 "HgN/A
11:00 AM41 °FSprinkles. Partly sunny.6 mph76%29.24 "HgN/A
10:30 AM41 °FSprinkles. Partly sunny.6 mph76%29.21 "HgN/A
10:00 AM39 °FSprinkles. Partly sunny.8 mph81%29.21 "HgN/A
9:30 AM39 °FSprinkles. Partly sunny.8 mph81%29.21 "HgN/A
9:00 AM39 °FSprinkles. Partly sunny.8 mph81%29.21 "Hg6 mi
8:30 AM39 °FSprinkles. Partly sunny.8 mph81%29.21 "Hg6 mi
8:00 AM39 °FSprinkles. Partly sunny.10 mph87%29.21 "HgN/A
7:30 AM39 °FSprinkles. Partly sunny.8 mph81%29.21 "Hg6 mi
7:00 AM39 °FSprinkles. Partly sunny.13 mph81%29.21 "HgN/A
6:30 AM39 °FSprinkles. Partly sunny.8 mph81%29.21 "HgN/A
6:00 AM39 °FSprinkles. Partly sunny.10 mph75%29.18 "HgN/A
5:30 AM39 °FSprinkles. Partly sunny.10 mph75%29.18 "HgN/A
5:00 AM39 °FSprinkles. Partly sunny.8 mph75%29.18 "HgN/A
4:30 AM41 °FPartly sunny.15 mph70%29.18 "HgN/A
4:00 AM41 °FPartly sunny.8 mph76%29.18 "HgN/A
3:30 AM41 °FPartly sunny.6 mph76%29.21 "HgN/A
3:00 AM41 °FSprinkles. Partly sunny.6 mph70%29.18 "HgN/A
2:30 AM43 °FPartly sunny.10 mph66%29.18 "HgN/A
2:00 AM45 °FPartly sunny.8 mph61%29.21 "HgN/A
1:30 AM46 °FPartly sunny.8 mph53%29.21 "HgN/A
1:00 AM46 °FPartly sunny.6 mph53%29.21 "HgN/A
12:00 AM43 °FPartly sunny.3 mph76%29.21 "HgN/A
11:30 PM
Sat, May 23
46 °FPartly sunny.3 mph66%29.24 "HgN/A
11:00 PM45 °FPartly sunny.6 mph76%29.24 "HgN/A
10:30 PM48 °FPartly sunny.6 mph66%29.27 "HgN/A
10:00 PM46 °FPartly sunny.6 mph76%29.27 "HgN/A
9:30 PM46 °FPartly sunny.6 mph82%29.27 "HgN/A
9:00 PM46 °FPartly sunny.6 mph76%29.30 "HgN/A
Weather by CustomWeather, © 2015

See weather overviewHow to use our weather pages